Temp
-5 -5 -5 -6 -6 -7 -7 -5 -6 -6 -6 -6 -6 -7 -7 -7 -7 -7 -6 -6 -6 -6 -6 -7 -8 -8 -8 -8 -8 -8 -8 -8 -8 -8 -8 -7 -7 -7 -7 -6 -7 -6 -6 -6 -6 -6 -6 -5 -5
-5 -5 -5 -6 -6 -7 -8 -5 -5 -5 -5 -5 -6 -7 -7 -7 -6 -6 -6 -6 -6 -6 -7 -7 -7 -8 -8 -8 -8 -7 -8 -8 -8 -8 -8 -8 -7 -7 -7 -6 -6 -6 -6 -6 -6 -6 -6 -6 -6
-5 -5 -5 -5 -7 -7 -7 -5 -5 -5 -5 -5 -6 -6 -6 -7 -7 -6 -6 -6 -6 -6 -7 -7 -7 -7 -8 -8 -8 -8 -8 -8 -8 -8 -8 -7 -7 -7 -7 -7 -6 -6 -6 -6 -6 -6 -6 -6 -6
-4 -4 -5 -6 -6 -7 -7 -5 -5 -5 -5 -5 -7 -5 -6 -6 -6 -7 -7 -6 -7 -7 -7 -7 -7 -8 -8 -8 -8 -8 -8 -7 -7 -8 -7 -7 -7 -7 -7 -7 -7 -7 -6 -6 -6 -6 -6 -6 -5
-4 -6 -5 -5 -7 -6 -7 -6 -7 -5 -5 -6 -6 -6 -6 -6 -6 -6 -6 -6 -7 -7 -7 -7 -7 -7 -8 -8 -8 -8 -8 -8 -8 -7 -7 -7 -7 -7 -7 -7 -7 -7 -6 -6 -6 -6 -6 -6 -6
-5 -6 -4 -6 -6 -5 -6 -7 -6 -7 -5 -5 -5 -5 -6 -6 -6 -6 -6 -6 -7 -7 -7 -7 -7 -8 -7 -8 -8 -8 -8 -8 -8 -7 -7 -7 -7 -7 -7 -7 -7 -7 -6 -6 -6 -6 -6 -6 -6
-5 -6 -5 -5 -6 -6 -6 -7 -6 -6 -6 -5 -5 -5 -6 -6 -7 -7 -6 -6 -7 -7 -7 -8 -7 -8 -8 -8 -8 -8 -8 -8 -7 -7 -7 -7 -7 -7 -7 -7 -6 -7 -6 -6 -6 -6 -6 -6 -6
-4 -6 -5 -5 -6 -7 -6 -7 -7 -7 -6 -5 -5 -5 -5 -6 -6 -7 -7 -7 -6 -7 -7 -7 -8 -8 -8 -8 -8 -8 -8 -8 -8 -7 -7 -7 -7 -7 -7 -7 -6 -6 -6 -6 -6 -6 -6 -6 -6
-4 -5 -6 -6 -6 -6 -6 -7 -7 -7 -6 -7 -6 -6 -6 -6 -6 -7 -7 -8 -7 -7 -7 -7 -8 -8 -8 -8 -8 -8 -8 -8 -8 -8 -7 -7 -7 -7 -7 -6 -6 -6 -6 -6 -6 -6 -6 -6 -6
-4 -8 -6 -5 -6 -6 -6 -7 -7 -7 -7 -7 -7 -7 -7 -6 -6 -7 -7 -7 -8 -7 -7 -7 -8 -8 -8 -8 -8 -8 -7 -8 -8 -8 -7 -7 -7 -7 -7 -6 -6 -6 -6 -6 -6 -6 -6 -6 -6
-4 -8 -7 -6 -6 -7 -6 -7 -7 -7 -7 -7 -6 -8 -7 -7 -6 -6 -7 -7 -8 -8 -7 -7 -7 -8 -8 -7 -7 -8 -7 -7 -7 -7 -7 -7 -8 -7 -7 -7 -6 -6 -6 -6 -6 -6 -6 -6 -6
-3 -4 -6 -5 -5 -7 -7 -7 -7 -6 -7 -8 -7 -6 -7 -7 -7 -6 -7 -7 -7 -8 -8 -7 -7 -8 -7 -7 -7 -8 -8 -8 -8 -7 -7 -7 -7 -7 -7 -7 -7 -6 -6 -6 -6 -6 -6 -6 -6
-4 -4 -4 -4 -4 -4 -5 -6 -7 -7 -6 -8 -8 -7 -7 -7 -7 -7 -6 -7 -7 -8 -8 -8 -8 -7 -8 -8 -8 -8 -8 -7 -7 -7 -7 -7 -7 -7 -7 -7 -7 -7 -7 -6 -6 -6 -6 -6 -6
-4 -4 -4 -4 -4 -4 -5 -5 -6 -7 -8 -8 -8 -7 -7 -7 -7 -7 -7 -7 -7 -7 -8 -8 -8 -8 -7 -7 -7 -7 -7 -7 -7 -6 -7 -6 -6 -6 -6 -7 -7 -7 -6 -6 -6 -6 -6 -6 -6
-4 -3 -3 -4 -4 -5 -6 -5 -5 -7 -8 -7 -8 -7 -7 -7 -7 -7 -7 -7 -7 -7 -8 -8 -8 -8 -8 -7 -7 -7 -7 -7 -6 -8 -7 -8 -6 -7 -6 -6 -6 -6 -6 -6 -6 -6 -6 -6 -6
-4 -4 -3 -4 -4 -6 -8 -7 -6 -7 -7 -8 -7 -7 -7 -7 -7 -7 -7 -7 -7 -7 -7 -7 -8 -8 -8 -8 -7 -7 -7 -7 -7 -7 -7 -7 -7 -7 -7 -6 -6 -6 -6 -6 -6 -6 -7 -7 -6
-4 -4 -3 -3 -6 -8 -8 -7 -7 -7 -7 -8 -7 -8 -8 -7 -7 -7 -7 -7 -7 -7 -7 -7 -7 -7 -8 -8 -8 -7 -7 -7 -7 -7 -7 -7 -7 -7 -7 -7 -7 -7 -7 -6 -6 -7 -7 -7 -6
-4 -4 -5 -6 -7 -7 -7 -7 -7 -8 -7 -7 -8 -8 -8 -8 -9 -7 -7 -7 -7 -7 -7 -7 -7 -7 -7 -8 -8 -8 -7 -7 -7 -7 -7 -7 -7 -7 -7 -7 -7 -7 -6 -7 -6 -7 -7 -7 -7
-4 -4 -4 -4 -5 -7 -7 -7 -8 -7 -8 -8 -8 -8 -8 -8 -8 -8 -7 -7 -7 -7 -8 -8 -7 -7 -7 -7 -8 -8 -8 -7 -7 -8 -8 -8 -8 -8 -8 -7 -7 -7 -7 -7 -7 -7 -7 -7 -6
-5 -5 -4 -5 -6 -7 -6 -6 -8 -8 -8 -8 -8 -8 -8 -8 -8 -8 -8 -7 -7 -7 -8 -7 -7 -7 -8 -7 -7 -8 -8 -8 -7 -7 -8 -7 -7 -7 -7 -7 -7 -7 -7 -7 -7 -7 -7 -7 -6
-5 -5 -5 -5 -5 -6 -7 -6 -8 -9 -9 -9 -8 -8 -9 -8 -7 -8 -8 -7 -7 -7 -7 -7 -7 -7 -7 -8 -7 -8 -8 -7 -7 -7 -7 -7 -7 -7 -7 -7 -7 -7 -7 -7 -7 -7 -7 -7 -6
-5 -7 -6 -6 -6 -6 -9 -8 -8 -9 -9 -9 -9 -8 -8 -8 -7 -8 -8 -8 -7 -7 -7 -8 -7 -7 -7 -7 -7 -7 -8 -7 -6 -7 -7 -7 -7 -7 -7 -7 -7 -7 -7 -7 -7 -7 -6 -6 -6
-6 -6 -7 -7 -7 -7 -7 -10 -9 -9 -9 -9 -9 -9 -9 -8 -8 -7 -7 -8 -7 -7 -7 -8 -7 -7 -7 -7 -7 -7 -7 -7 -6 -6 -7 -7 -7 -6 -6 -6 -7 -7 -7 -7 -6 -6 -6 -6 -6
-6 -7 -7 -8 -9 -9 -9 -9 -10 -9 -10 -10 -8 -9 -8 -8 -8 -8 -8 -8 -7 -7 -6 -7 -7 -7 -8 -7 -7 -7 -7 -7 -7 -7 -7 -7 -7 -7 -6 -6 -6 -6 -6 -7 -7 -6 -6 -6 -7
-8 -10 -10 -9 -9 -8 -9 -10 -10 -10 -10 -10 -8 -8 -9 -8 -8 -8 -8 -7 -7 -7 -6 -7 -7 -8 -8 -7 -7 -7 -7 -7 -7 -7 -7 -7 -7 -7 -7 -6 -6 -6 -6 -7 -7 -6 -6 -6 -6
-8 -10 -10 -10 -9 -9 -10 -11 -10 -10 -10 -9 -10 -9 -10 -9 -8 -8 -8 -8 -7 -7 -7 -7 -7 -8 -8 -7 -7 -7 -7 -7 -8 -7 -7 -7 -7 -7 -7 -7 -7 -7 -7 -7 -7 -6 -6 -6 -6
-10 -10 -10 -10 -10 -10 -10 -10 -10 -10 -9 -10 -8 -8 -10 -10 -9 -8 -5 -7 -7 -7 -7 -7 -7 -8 -8 -7 -7 -7 -7 -7 -8 -7 -7 -7 -7 -7 -7 -7 -7 -7 -7 -7 -7 -7 -7 -6 -6
-11 -11 -11 -10 -10 -10 -10 -10 -10 -10 -10 -10 -11 -10 -10 -8 -9 -9 -9 -5 -6 -7 -7 -7 -7 -7 -8 -7 -7 -7 -7 -7 -7 -7 -7 -7 -7 -7 -7 -7 -8 -7 -7 -7 -7 -7 -7 -7 -7
-11 -10 -11 -11 -10 -10 -10 -10 -10 -9 -10 -11 -11 -9 -10 -9 -9 -8 -9 -9 -8 -7 -7 -7 -8 -7 -7 -7 -7 -7 -7 -7 -7 -7 -8 -7 -7 -7 -8 -8 -8 -8 -8 -8 -7 -7 -7 -7 -8
-12 -11 -11 -10 -10 -11 -11 -10 -9 -10 -9 -10 -10 -10 -10 -10 -9 -10 -9 -9 -8 -8 -6 -5 -6 -6 -7 -7 -6 -7 -7 -7 -8 -8 -8 -8 -7 -7 -8 -8 -8 -8 -8 -8 -8 -8 -8 -8 -8
Height
5905 5904 5901 5899 5900 5895 5897 5895 5890 5886 5884 5880 5877 5873 5873 5868 5866 5865 5864 5866 5867 5868 5867 5866 5868 5869 5869 5871 5873 5872 5876 5878 5880 5881 5882 5885 5887 5891 5892 5894 5896 5896 5898 5900 5901 5902 5904 5906 5908
5906 5907 5903 5902 5902 5905 5899 5897 5895 5890 5886 5882 5880 5877 5874 5870 5867 5867 5865 5868 5867 5868 5868 5869 5869 5870 5873 5873 5874 5877 5877 5878 5880 5883 5885 5887 5889 5892 5893 5896 5897 5898 5900 5901 5903 5904 5906 5908 5910
5909 5907 5903 5901 5906 5910 5901 5898 5896 5894 5889 5885 5882 5882 5878 5875 5872 5870 5869 5869 5869 5868 5867 5869 5871 5872 5874 5875 5877 5878 5878 5881 5882 5884 5886 5889 5891 5893 5894 5897 5898 5900 5902 5903 5905 5906 5908 5910 5911
5907 5906 5902 5901 5907 5907 5904 5899 5898 5896 5894 5890 5885 5884 5881 5880 5877 5874 5871 5870 5870 5870 5869 5868 5869 5870 5873 5876 5877 5879 5880 5882 5883 5885 5886 5890 5892 5893 5896 5897 5899 5902 5903 5904 5906 5908 5910 5912 5913
5910 5908 5899 5901 5904 5907 5904 5903 5900 5898 5896 5893 5890 5886 5884 5882 5880 5877 5875 5872 5870 5870 5869 5869 5870 5870 5871 5874 5877 5879 5881 5883 5885 5887 5889 5891 5892 5894 5896 5898 5900 5903 5903 5905 5907 5909 5911 5913 5915
5909 5892 5893 5901 5910 5907 5906 5905 5900 5898 5897 5895 5893 5890 5887 5885 5883 5881 5878 5876 5873 5871 5869 5869 5869 5870 5871 5872 5875 5878 5881 5883 5885 5888 5890 5892 5893 5895 5897 5899 5901 5903 5904 5906 5907 5910 5912 5915 5916
5909 5906 5875 5890 5904 5910 5909 5907 5907 5901 5896 5897 5894 5893 5890 5888 5885 5883 5880 5878 5875 5872 5870 5869 5870 5870 5871 5872 5874 5877 5880 5882 5885 5888 5890 5891 5894 5896 5898 5900 5902 5903 5904 5906 5908 5911 5912 5915 5916
5905 5908 5903 5895 5903 5908 5914 5908 5904 5903 5900 5897 5896 5895 5893 5890 5887 5885 5883 5880 5878 5876 5874 5872 5871 5871 5871 5872 5873 5876 5879 5882 5885 5887 5889 5891 5894 5895 5898 5900 5901 5903 5904 5906 5908 5911 5912 5914 5916
5904 5905 5901 5905 5905 5896 5912 5914 5911 5903 5897 5899 5899 5898 5895 5893 5890 5887 5886 5884 5880 5879 5877 5874 5870 5870 5870 5872 5873 5875 5877 5880 5883 5885 5888 5890 5893 5896 5897 5900 5901 5903 5905 5906 5909 5911 5912 5914 5916
5905 5905 5902 5901 5896 5881 5905 5912 5912 5910 5902 5898 5900 5900 5897 5895 5892 5889 5887 5886 5884 5881 5879 5876 5873 5870 5869 5871 5873 5875 5877 5880 5882 5884 5887 5890 5893 5895 5897 5899 5901 5902 5904 5906 5908 5911 5912 5914 5915
5904 5906 5909 5903 5885 5903 5909 5910 5910 5907 5909 5896 5890 5897 5899 5895 5893 5892 5890 5888 5886 5883 5880 5878 5875 5871 5869 5871 5873 5875 5878 5879 5881 5883 5886 5888 5874 5886 5895 5897 5899 5901 5903 5906 5908 5911 5912 5914 5915
5903 5903 5903 5905 5905 5903 5905 5907 5906 5903 5905 5904 5891 5882 5899 5895 5893 5893 5892 5890 5888 5886 5884 5881 5879 5874 5869 5871 5874 5876 5878 5879 5880 5881 5884 5887 5883 5889 5893 5895 5898 5900 5902 5905 5907 5909 5911 5913 5915
5901 5901 5900 5899 5899 5900 5900 5899 5900 5900 5902 5905 5892 5888 5897 5894 5893 5892 5893 5892 5890 5889 5887 5885 5882 5879 5877 5877 5877 5878 5878 5879 5879 5880 5881 5884 5886 5887 5891 5893 5896 5898 5901 5903 5905 5907 5909 5912 5913
5898 5897 5898 5896 5895 5895 5895 5895 5896 5898 5901 5904 5899 5892 5893 5893 5893 5893 5893 5893 5892 5891 5889 5888 5886 5884 5882 5881 5880 5879 5879 5878 5875 5876 5880 5881 5882 5885 5887 5890 5893 5896 5898 5901 5903 5906 5909 5910 5911
5894 5893 5892 5892 5891 5891 5890 5892 5892 5895 5898 5902 5895 5895 5890 5891 5891 5892 5892 5893 5893 5892 5891 5890 5889 5887 5886 5885 5884 5882 5880 5880 5871 5871 5866 5875 5883 5883 5884 5887 5889 5891 5894 5897 5900 5903 5906 5908 5909
5889 5888 5887 5888 5886 5886 5890 5888 5890 5892 5895 5898 5889 5885 5887 5888 5888 5889 5891 5892 5892 5893 5892 5892 5891 5889 5889 5887 5886 5885 5883 5882 5881 5878 5876 5877 5881 5881 5882 5883 5885 5888 5890 5893 5896 5899 5902 5905 5907
5885 5883 5882 5882 5882 5884 5887 5887 5890 5890 5891 5892 5885 5888 5885 5885 5885 5885 5888 5890 5891 5892 5892 5892 5892 5891 5890 5889 5888 5885 5884 5883 5881 5881 5881 5880 5880 5880 5879 5882 5884 5881 5884 5890 5892 5893 5897 5901 5904
5879 5877 5877 5877 5880 5881 5883 5881 5884 5883 5884 5886 5887 5886 5885 5885 5884 5880 5885 5887 5889 5890 5890 5891 5892 5891 5891 5890 5888 5887 5885 5884 5882 5881 5880 5880 5880 5878 5877 5880 5881 5882 5884 5888 5889 5890 5893 5897 5900
5873 5871 5869 5871 5871 5870 5868 5870 5874 5877 5879 5879 5880 5882 5880 5881 5884 5878 5878 5883 5885 5887 5888 5889 5890 5890 5890 5889 5888 5887 5885 5883 5882 5881 5881 5881 5880 5879 5877 5877 5879 5881 5883 5887 5886 5887 5888 5892 5894
5868 5865 5864 5862 5862 5860 5860 5859 5860 5864 5866 5867 5869 5870 5871 5872 5875 5879 5872 5879 5881 5884 5886 5886 5887 5888 5888 5887 5886 5886 5884 5882 5881 5880 5880 5880 5878 5878 5876 5876 5876 5877 5879 5880 5881 5882 5884 5887 5889
5863 5859 5858 5855 5854 5851 5850 5846 5848 5851 5853 5856 5857 5859 5860 5861 5865 5872 5867 5872 5876 5880 5883 5883 5884 5885 5885 5885 5884 5884 5883 5882 5880 5879 5877 5878 5878 5876 5874 5871 5872 5872 5874 5875 5877 5877 5880 5882 5884
5857 5854 5851 5848 5847 5844 5846 5836 5839 5842 5845 5847 5848 5850 5850 5854 5856 5862 5860 5865 5871 5876 5878 5880 5880 5882 5883 5883 5883 5882 5881 5881 5879 5877 5877 5874 5874 5873 5870 5870 5867 5866 5866 5868 5870 5874 5877 5878 5879
5851 5848 5845 5842 5839 5835 5834 5830 5830 5832 5832 5830 5826 5836 5845 5848 5850 5853 5851 5858 5866 5869 5874 5875 5876 5879 5880 5881 5881 5880 5879 5879 5878 5876 5874 5873 5870 5869 5866 5864 5863 5863 5863 5864 5866 5870 5872 5873 5874
5842 5840 5836 5833 5831 5830 5828 5822 5820 5820 5818 5809 5819 5825 5829 5843 5845 5848 5845 5852 5859 5862 5867 5869 5872 5874 5876 5878 5879 5877 5876 5876 5875 5872 5873 5870 5869 5866 5862 5857 5856 5846 5851 5858 5862 5864 5867 5868 5868
5836 5834 5833 5834 5833 5831 5826 5816 5815 5808 5807 5806 5814 5820 5823 5835 5840 5842 5839 5844 5852 5854 5860 5864 5866 5870 5872 5873 5874 5874 5873 5871 5871 5870 5868 5867 5864 5861 5859 5855 5854 5852 5854 5855 5857 5860 5862 5865 5865
5833 5832 5830 5827 5827 5821 5818 5810 5808 5804 5799 5804 5809 5811 5818 5814 5831 5836 5835 5837 5844 5847 5852 5857 5861 5865 5867 5869 5869 5869 5869 5867 5867 5867 5866 5865 5861 5859 5858 5855 5852 5851 5853 5855 5857 5858 5860 5862 5861
5830 5828 5829 5825 5822 5818 5813 5808 5809 5801 5800 5801 5811 5808 5805 5809 5824 5822 5810 5825 5831 5837 5844 5850 5855 5859 5861 5863 5864 5865 5865 5864 5864 5864 5862 5862 5861 5858 5856 5855 5854 5854 5853 5855 5856 5856 5856 5857 5856
5824 5823 5821 5821 5817 5813 5812 5805 5805 5800 5801 5799 5794 5800 5801 5796 5805 5808 5820 5802 5823 5833 5839 5844 5847 5853 5855 5857 5859 5860 5861 5861 5860 5859 5857 5857 5857 5856 5855 5853 5851 5851 5852 5852 5852 5853 5853 5853 5852
5821 5817 5814 5809 5810 5807 5805 5805 5795 5793 5797 5788 5785 5787 5788 5784 5772 5782 5808 5814 5818 5823 5829 5834 5839 5845 5849 5850 5852 5853 5854 5855 5855 5854 5855 5854 5854 5853 5852 5851 5851 5850 5850 5849 5849 5849 5848 5848 5848
5810 5806 5805 5802 5806 5805 5799 5797 5788 5791 5793 5787 5783 5781 5775 5783 5777 5769 5802 5810 5816 5819 5816 5827 5832 5837 5840 5841 5842 5844 5845 5847 5848 5848 5848 5848 5848 5848 5849 5849 5849 5848 5846 5846 5846 5845 5846 5845 5844
Wind_Speed
23 23 20 27 26 27 14 18 15 19 19 21 18 18 11 13 15 13 12 12 11 10 8 5 7 7 7 8 11 17 20 19 17 18 19 19 18 17 16 15 15 15 15 15 16 17 18 18 17
24 15 20 26 29 11 10 15 15 15 19 22 26 24 19 16 15 15 14 13 10 9 10 8 6 7 6 7 8 11 15 18 22 20 19 18 18 17 16 14 14 14 14 15 15 16 17 17 17
17 12 21 26 22 11 10 12 13 16 17 18 25 22 23 19 16 16 15 13 10 9 8 8 7 7 7 7 8 8 10 13 19 20 20 17 17 16 16 15 14 14 14 15 15 15 15 16 16
14 11 20 25 18 12 9 13 11 14 16 16 22 18 23 21 19 18 17 15 12 10 7 7 6 6 6 8 8 9 9 10 12 15 18 15 14 14 14 14 14 14 13 15 15 14 14 14 15
7 9 16 15 14 9 17 18 15 14 13 15 17 20 20 22 22 20 21 20 14 10 6 6 6 5 6 6 8 9 10 10 11 13 17 16 12 13 14 14 14 14 14 13 14 14 13 14 13
2 13 6 21 11 15 9 17 8 20 14 10 12 13 18 20 21 23 22 21 22 15 6 4 4 5 4 6 7 10 9 10 10 12 14 17 14 12 11 13 13 14 14 13 13 14 14 13 12
5 14 8 1 15 5 18 9 11 10 15 15 13 12 12 15 18 21 23 21 23 27 18 5 3 3 4 5 7 9 10 10 11 12 13 14 17 17 13 11 10 12 13 14 14 14 14 13 13
7 7 18 13 10 14 9 5 16 4 12 16 13 9 11 10 14 18 22 22 20 22 24 18 8 1 3 5 5 8 11 12 12 12 13 14 14 15 18 15 13 13 13 13 14 15 15 14 13
9 5 20 20 6 18 8 3 7 21 22 19 15 9 11 12 10 12 17 22 21 21 22 26 17 2 5 6 6 7 9 11 13 12 12 12 14 15 14 17 14 14 13 13 15 15 16 16 15
12 11 21 23 20 14 9 12 9 8 20 29 16 13 12 13 12 9 12 18 21 21 21 25 28 9 5 8 7 8 7 10 13 14 13 13 12 13 15 15 15 14 13 13 16 17 17 18 17
10 17 13 30 31 21 12 14 14 5 7 27 20 9 15 8 14 16 10 13 19 22 21 23 26 26 4 7 8 6 6 6 8 12 13 13 20 15 14 15 17 17 15 13 14 16 18 18 18
10 11 16 16 22 17 14 14 15 15 10 18 26 15 11 9 11 15 11 10 15 19 23 23 23 28 14 9 6 4 5 5 7 9 11 13 14 13 16 16 17 18 18 18 16 15 18 18 19
16 13 14 18 19 19 19 18 17 17 11 11 24 20 20 12 9 9 13 8 11 15 19 22 25 23 26 20 13 7 2 3 8 13 14 15 17 18 18 19 19 20 20 20 19 18 17 18 19
20 21 20 21 21 18 17 19 19 17 11 16 23 29 25 17 8 6 8 8 7 11 15 19 22 24 19 17 17 13 9 7 4 8 13 14 15 18 19 21 22 22 21 21 21 21 20 19 18
24 25 24 24 20 19 18 16 19 19 15 14 29 30 30 24 13 8 5 7 5 6 11 15 19 19 21 18 13 12 10 12 15 3 23 6 11 15 16 19 22 23 23 23 20 22 23 23 20
23 26 27 22 21 15 17 26 18 18 19 12 25 27 26 26 23 15 9 5 7 6 6 10 14 16 19 20 18 15 13 8 7 11 12 8 9 8 13 16 20 20 22 23 23 23 22 25 23
22 26 26 25 18 17 19 23 20 19 23 20 18 21 26 37 29 24 19 11 8 10 8 6 6 12 17 18 19 17 16 14 8 7 8 10 5 1 7 9 14 21 22 22 24 23 24 23 24
28 27 24 24 20 18 24 24 22 26 25 26 24 25 28 25 24 33 22 22 14 12 13 9 7 8 12 15 19 20 17 15 12 9 7 7 4 4 4 5 12 16 14 19 20 19 20 23 26
32 34 34 26 24 29 31 29 26 28 24 26 30 33 36 28 23 32 34 26 22 15 14 14 11 10 10 16 20 20 19 17 15 12 10 6 4 5 7 6 10 16 14 22 21 22 20 20 25
31 32 33 32 29 30 30 40 36 30 33 33 33 35 38 42 35 27 38 26 26 22 17 19 15 11 10 15 22 16 18 19 18 16 12 11 11 8 10 11 13 12 16 17 20 21 23 26 27
31 35 33 34 33 33 31 39 34 32 34 37 37 36 38 38 35 26 40 34 28 28 18 19 15 11 11 14 15 17 19 20 20 18 18 15 12 15 15 15 14 16 16 19 21 24 26 28 27
32 27 32 32 33 36 23 38 34 30 28 28 30 24 22 27 30 35 42 41 31 30 19 19 16 13 10 11 13 16 19 21 20 21 20 20 16 17 19 17 21 17 20 21 23 24 27 27 29
29 27 29 31 31 32 33 29 27 27 32 41 41 32 27 26 26 32 47 43 32 32 22 20 18 13 10 10 13 16 16 19 19 21 22 17 20 22 22 22 20 23 20 24 24 26 25 26 27
29 27 28 22 26 25 27 36 37 37 36 50 35 41 14 21 25 24 38 39 34 34 27 23 19 14 11 13 13 16 17 18 20 23 20 18 16 20 20 21 24 26 24 17 23 23 26 26 26
26 20 20 20 20 24 26 29 35 33 32 43 28 27 23 17 23 27 39 36 32 37 30 25 18 17 15 17 16 18 19 19 21 22 22 21 18 20 22 20 15 10 15 14 17 20 23 24 26
21 15 16 20 24 27 21 26 22 30 28 36 29 27 19 27 30 32 38 40 34 38 33 22 22 20 19 19 17 20 21 22 23 24 23 22 17 17 17 17 15 14 10 8 13 16 18 21 24
18 20 19 24 21 24 25 30 17 20 18 20 33 18 18 29 33 49 28 26 39 41 34 28 22 21 20 22 20 21 23 25 26 24 25 24 18 14 13 9 8 8 8 8 9 13 16 18 20
19 18 18 20 24 24 25 24 27 26 12 20 31 33 36 42 49 44 27 18 28 32 32 29 28 24 27 27 24 24 25 26 28 27 25 23 22 15 14 13 9 9 7 8 9 11 14 16 17
21 20 26 32 28 24 19 20 32 29 25 30 34 30 44 45 50 51 48 40 33 36 36 35 32 27 26 31 29 30 30 27 30 31 26 26 24 20 13 14 14 14 13 11 11 12 14 13 16
22 25 32 34 28 27 31 25 33 30 28 26 32 42 18 41 30 23 40 39 38 36 39 37 32 29 28 33 32 34 36 33 32 34 30 26 24 22 17 14 15 15 14 14 14 15 16 17 16
Wind_Direction
45 29 59 59 57 53 30 27 58 59 54 58 56 59 38 45 40 46 38 39 35 53 62 98 111 117 120 115 123 140 149 149 140 139 137 136 137 143 141 142 139 129 130 132 131 134 136 136 131
41 63 71 69 58 29 19 25 28 50 53 55 50 49 42 35 48 51 51 49 27 43 69 85 104 114 130 140 128 141 152 156 165 151 140 137 140 140 140 145 142 139 137 138 136 137 143 140 139
44 71 78 65 62 41 353 18 10 34 47 52 62 51 48 47 55 55 55 57 49 35 50 66 101 132 147 141 158 159 156 158 166 158 145 141 143 144 146 150 148 148 144 141 143 139 144 145 146
50 58 77 83 69 359 7 19 356 25 32 41 58 64 57 49 54 53 55 54 47 46 49 73 75 112 151 162 159 167 172 171 166 166 138 144 150 146 152 152 151 157 152 145 147 147 151 152 152
41 97 77 95 82 11 0 24 22 4 12 26 48 61 61 55 50 46 45 49 52 45 45 62 85 96 130 164 180 172 179 179 180 176 170 164 159 165 161 152 158 163 154 149 151 154 152 154 158
276 205 340 90 85 320 41 23 349 345 350 1 25 38 56 58 54 49 47 49 46 47 50 75 76 91 111 149 180 189 183 185 185 184 180 177 172 177 173 161 166 164 159 155 155 162 160 162 163
322 301 52 346 114 87 3 65 351 328 339 359 342 3 37 48 47 46 45 42 47 46 40 77 89 89 125 150 167 186 189 190 194 197 190 181 181 183 179 175 176 171 169 164 161 169 168 171 170
296 291 325 6 105 87 18 14 348 311 325 352 343 355 347 23 37 36 39 36 44 48 46 46 43 2 156 154 166 180 188 196 194 201 202 195 190 190 185 181 193 181 177 177 172 177 178 181 180
285 300 305 328 139 124 332 7 336 338 334 333 337 8 0 346 17 32 34 34 32 41 42 37 32 118 178 173 171 183 196 197 200 202 204 206 205 200 191 191 202 193 189 186 187 187 186 187 190
296 286 311 312 332 0 64 300 348 2 314 313 302 332 356 351 350 13 34 37 35 33 36 39 37 44 170 188 183 189 194 199 206 207 204 206 213 213 207 203 206 213 204 199 197 195 194 201 197
312 291 285 304 334 346 305 278 307 296 323 301 282 359 331 342 357 341 11 45 37 33 30 33 36 33 104 180 186 185 192 196 208 215 214 213 217 193 223 214 212 214 215 212 208 206 203 206 209
326 314 294 280 251 257 254 258 268 277 291 303 300 17 326 326 350 348 346 40 41 34 36 31 35 36 59 129 134 165 202 208 223 219 217 219 241 227 227 225 224 221 221 217 213 211 212 213 216
315 306 302 294 291 281 279 271 265 265 288 296 302 301 291 313 323 346 348 10 38 36 35 33 36 42 56 66 77 82 89 207 223 220 212 217 226 231 226 233 230 228 225 225 222 218 219 218 220
303 302 300 295 297 298 284 276 263 259 279 277 280 286 290 291 295 319 353 335 25 35 31 32 34 38 42 54 63 63 56 38 242 225 236 232 222 230 230 225 227 230 231 229 230 228 226 226 224
304 304 302 300 295 286 290 269 261 254 254 259 275 284 291 282 284 285 316 327 321 13 22 27 28 33 35 33 36 44 46 49 28 295 229 212 236 235 234 235 226 224 231 231 234 234 230 229 228
302 302 302 301 293 294 278 280 280 258 255 237 233 272 283 272 279 277 275 283 290 304 357 12 18 19 20 27 22 21 23 23 32 20 33 13 224 232 230 229 229 226 228 230 233 238 234 232 232
307 305 305 304 309 289 264 271 268 257 245 244 291 251 271 281 269 272 273 256 266 271 288 324 359 1 2 9 14 10 12 11 11 25 25 40 49 270 233 226 215 218 209 228 227 232 234 233 236
313 310 302 286 267 250 275 277 261 266 246 224 241 252 259 270 270 274 260 268 250 252 269 284 313 343 357 6 6 359 2 11 359 355 1 4 7 352 298 255 230 235 235 220 226 227 232 243 239
314 314 312 305 286 253 235 229 244 236 254 250 242 245 263 251 247 268 268 263 259 252 250 267 283 304 343 345 341 346 353 3 0 355 349 348 317 293 307 280 259 234 215 227 227 228 230 235 241
312 309 309 304 296 282 270 255 241 244 245 246 242 241 246 243 238 240 263 258 258 262 247 257 273 299 331 335 333 344 352 357 359 351 351 341 327 299 292 288 277 272 235 230 228 230 232 239 242
310 307 305 301 297 289 287 284 273 261 251 250 243 243 249 256 241 223 255 257 251 258 251 256 267 284 309 336 338 343 350 351 352 344 337 343 328 307 298 288 270 264 259 248 239 233 232 236 242
308 300 299 298 296 293 273 276 272 268 258 262 263 273 264 257 248 217 240 251 245 253 244 251 259 266 310 326 323 326 343 342 339 335 337 338 335 330 314 283 271 269 259 251 250 244 237 236 240
306 298 296 296 294 303 307 281 282 254 244 241 228 223 250 253 255 231 235 243 241 246 241 242 252 261 294 294 309 314 326 331 329 328 336 346 336 332 319 290 273 260 253 249 242 244 245 242 243
309 306 306 323 331 302 312 288 280 275 250 242 229 212 213 264 229 241 236 243 234 238 233 236 248 244 272 287 290 298 310 321 322 323 328 334 334 331 327 309 293 237 233 253 248 243 246 249 251
317 322 316 302 289 288 284 289 304 308 291 237 235 195 187 224 225 219 231 243 229 230 236 229 225 244 256 274 282 289 295 304 309 316 320 326 336 343 347 333 296 257 246 255 253 246 248 254 260
313 267 282 305 302 293 290 288 294 298 290 233 235 188 209 179 215 206 242 246 234 224 230 229 233 245 247 260 276 273 285 291 300 307 313 313 333 347 350 349 342 314 306 280 272 271 266 266 273
301 277 281 281 304 300 294 288 317 308 278 254 224 188 207 210 205 207 210 225 218 220 219 225 234 241 249 252 260 266 277 287 296 297 304 310 320 338 339 345 349 333 324 305 300 289 284 277 279
299 279 273 270 285 287 305 308 308 308 267 193 240 216 201 206 204 196 198 206 210 216 229 232 235 241 248 249 252 265 266 277 287 287 289 295 303 320 332 323 320 303 303 296 296 300 301 297 290
263 290 262 252 251 262 287 291 274 288 245 247 256 226 221 221 211 223 205 215 234 234 219 226 234 241 246 247 255 255 258 263 272 276 281 289 296 300 313 314 307 298 292 285 290 296 296 302 302
256 261 259 262 261 259 260 248 268 271 250 237 250 247 345 230 235 179 211 223 235 235 244 220 225 230 235 244 251 250 249 248 259 266 271 276 280 286 287 296 302 297 289 293 297 290 295 298 295